Miami, FL

2:56 AM EST on November 20, 2017 (GMT -0500)
Miami International

Weather History for KMIA - May, 2013

Change the Weather History Date:

Friday, May 31, 2013

  Actual Average Record
Temperature  
Mean Temperature 80 °F 82 °F  
Max Temperature 85 °F 89 °F 93 °F (1991)
Min Temperature 74 °F 75 °F 62 °F (1971)
Degree Days  
Heating Degree Days 0 0  
Month to date heating degree days 0 0  
Since 1 July heating degree days 70 128  
Cooling Degree Days 15 17  
Month to date cooling degree days 438 463  
Year to date cooling degree days 1445 1356  
Growing Degree Days 30 (Base 50)    
Moisture  
Dew Point 73 °F    
Average Humidity 80    
Maximum Humidity 91    
Minimum Humidity 69    
Precipitation  
Precipitation 1.45 in 0.25 in 4.82 in (1930)
Month to date precipitation 11.03 5.34  
Year to date precipitation 19.37 15.35  
Snow  
Snow 0.00 in - - ()
Month to date snowfall 0.0  
Since 1 July snowfall 0.0  
Snow Depth 0.00 in    
Sea Level Pressure  
Sea Level Pressure 30.04 in    
Wind  
Wind Speed 9 mph (ESE)    
Max Wind Speed 17 mph    
Max Gust Speed 24 mph    
Visibility 9 miles    
Events Rain    
T = Trace of Precipitation, MM = Missing Value Source: NWS Daily Summary

Daily Weather History Graph

Daily Weather History Graph

Search for Another Location

Airport or City:

Trip Planner

Search our weather history database for the weather conditions in past years. The results will help you decide how hot, cold, wet, or windy it might be!

Date:

Astronomy

May. 31, 2013 Rise Set
Actual Time 6:29 AM EDT 8:08 PM EDT
Civil Twilight 6:04 AM EDT 8:33 PM EDT
Nautical Twilight 5:33 AM EDT 9:04 PM EDT
Astronomical Twilight 5:01 AM EDT 9:36 PM EDT
Moon 1:08 AM EDT (5/31) 1:13 PM EDT (5/31)
Length of Visible Light 14h 29m
Length of Day
13h 38m
Waning Gibbous, 51% of the Moon is Illuminated
May 31
Waning Gibbous
May 31
Last Quarter
Jun 8
New
Jun 16
First Quarter
Jun 23
Full

Hourly Weather History & Observations

Time (EDT) Temp. Heat Index Dew Point Humidity Pressure Visibility Wind Dir Wind Speed Gust Speed Precip Events Conditions
12:53 AM 78.1 °F - 72.0 °F 81% 30.05 in 10.0 mi ESE 10.4 mph - N/A   Overcast
1:27 AM 78.8 °F - 71.6 °F 78% 30.03 in 10.0 mi ESE 13.8 mph 20.7 mph N/A   Overcast
1:53 AM 77.0 °F - 72.0 °F 84% 30.03 in 10.0 mi East 11.5 mph 21.9 mph 0.00 in   Overcast
2:53 AM 77.0 °F - 72.0 °F 84% 30.01 in 10.0 mi East 15.0 mph 20.7 mph 0.00 in   Mostly Cloudy
3:53 AM 77.0 °F - 72.0 °F 84% 30.01 in 10.0 mi East 11.5 mph - N/A   Mostly Cloudy
4:28 AM 77.0 °F - 71.6 °F 83% 30.01 in 10.0 mi East 9.2 mph - N/A   Mostly Cloudy
4:53 AM 78.1 °F - 72.0 °F 81% 30.02 in 10.0 mi East 9.2 mph - N/A   Overcast
5:53 AM 77.0 °F - 73.0 °F 88% 30.03 in 10.0 mi East 3.5 mph - 0.00 in   Overcast
6:53 AM 77.0 °F - 73.0 °F 88% 30.03 in 10.0 mi ESE 6.9 mph - 0.04 in   Overcast
7:15 AM 77.0 °F - 73.4 °F 89% 30.04 in 10.0 mi ESE 8.1 mph - N/A   Mostly Cloudy
7:53 AM 78.1 °F - 73.9 °F 87% 30.05 in 10.0 mi ESE 5.8 mph - N/A   Mostly Cloudy
8:53 AM 81.0 °F 86.2 °F 73.9 °F 79% 30.05 in 10.0 mi East 11.5 mph - 0.00 in   Mostly Cloudy
9:39 AM 82.4 °F 88.2 °F 73.4 °F 74% 30.04 in 10.0 mi East 15.0 mph - N/A   Mostly Cloudy
9:53 AM 82.9 °F 88.8 °F 73.0 °F 72% 30.04 in 10.0 mi East 15.0 mph - N/A   Mostly Cloudy
10:53 AM 81.0 °F 86.7 °F 75.0 °F 82% 30.05 in 10.0 mi ESE 10.4 mph - 0.08 in   Overcast
11:28 AM 75.2 °F - 73.4 °F 94% 30.06 in 7.0 mi SE 16.1 mph - 0.09 in Rain Heavy Rain
11:53 AM 77.0 °F - 73.9 °F 90% 30.06 in 7.0 mi SSE 6.9 mph - 0.18 in Rain Rain
12:53 PM 78.1 °F - 75.0 °F 90% 30.06 in 8.0 mi SSE 6.9 mph - 0.03 in Rain Light Rain
1:53 PM 80.1 °F 84.5 °F 73.9 °F 81% 30.05 in 10.0 mi SE 12.7 mph 20.7 mph 0.00 in   Overcast
2:53 PM 82.0 °F 87.4 °F 73.0 °F 74% 30.03 in 10.0 mi East 12.7 mph - N/A   Overcast
3:53 PM 82.0 °F 87.4 °F 73.0 °F 74% 30.01 in 10.0 mi SE 12.7 mph - N/A   Overcast
4:53 PM 82.0 °F 86.7 °F 72.0 °F 71% 30.01 in 10.0 mi East 16.1 mph - N/A   Mostly Cloudy
5:53 PM 81.0 °F 85.2 °F 72.0 °F 74% 30.00 in 10.0 mi East 11.5 mph - N/A   Overcast
6:53 PM 77.0 °F - 73.0 °F 88% 30.02 in 4.0 mi ENE 8.1 mph - 0.04 in Rain Light Rain
7:05 PM 78.8 °F - 73.4 °F 83% 30.02 in 10.0 mi Variable 3.5 mph - 0.00 in Rain Light Rain
7:53 PM 79.0 °F - 73.9 °F 84% 30.03 in 10.0 mi ESE 9.2 mph - 0.00 in   Overcast
8:53 PM 77.0 °F - 73.9 °F 90% 30.03 in 10.0 mi SE 5.8 mph - 0.00 in   Mostly Cloudy
9:53 PM 77.0 °F - 73.9 °F 90% 30.04 in 10.0 mi East 3.5 mph - N/A   Overcast
10:53 PM 77.0 °F - 73.9 °F 90% 30.04 in 10.0 mi ESE 4.6 mph - N/A   Overcast
11:39 PM 77.0 °F - 73.4 °F 89% 30.05 in 2.0 mi SE 12.7 mph - 0.06 in Rain Heavy Rain
11:45 PM 75.2 °F - 73.4 °F 94% 30.05 in 0.8 mi SE 13.8 mph - 0.19 in Rain Heavy Rain
11:47 PM 75.2 °F - 73.4 °F 94% 30.05 in 0.8 mi SE 12.7 mph - 0.25 in Rain Heavy Rain
11:53 PM 75.0 °F - 73.0 °F 94% 30.05 in 0.8 mi SSE 8.1 mph - 0.58 in Rain Heavy Rain